Content
SEND FEEDBACK

Daily
Averages
Monthly
Summary
United States of America

DUNKIRK, MARYLAND


Home > North America > United States > Maryland
Elevation: 95 feet     Latitude: 38 41N     Longitude: 076 40W

WEATHER
 
SELECT A DAY
Number of Records: 425,676;   Date Range: 1/1/95 - 10/23/14
 
SHARE

PRINT THIS DATA

[ ← Previous Day ]
WEATHER ALMANAC - JANUARY 31, 2013
[ Next Day → ]
[ °C ]   °F
Weather ElementAverageHighLow
Temperature53.4 °F64.4 °F (12:42 am)30 °F (11:55 pm)
Dewpoint42.6 °F62.6 °F (12:54 am)10.2 °F (9:55 pm)
Humidity69.8 %94 % (12:54 am)31 % (1:55 pm)
Barometer29.41 in29.93 in (10:55 pm)29.17 in (1:21 am)
Wind Speed20.3 mph29.9 mph (1:16 am)
Wind Gust47.2 mph (4:42 am)
Weather ElementAverage
Visibility7.2 mi
Wind DirectionWSW (246 °)

Weather ElementTotal
Precipitation1.65 in
Heating Degree Days17.8 (Base 65)
Averaged from 50 records on January 31, 2013
WEATHER CONDITIONS BREAKOUT
WIND DIRECTION BREAKOUT
WEATHER BY HOUR - JANUARY 31, 2013
[ °C ]   °F
Local TimeTemperatureDewpointHumidityBarometerVisibilityWind DirectionWind SpeedGust SpeedPrecipitationEventsConditions
12:42 AM64.4 °F60.8 °F88 %29.21 in8.0 miSouth (180°)27.6 mph40.3 mphMostly Cloudy
12:47 AM64.4 °F60.8 °F88 %29.21 in5.0 miSouth (180°)20.7 mph38.0 mphRainHeavy Rain
12:48 AM64.4 °F60.8 °F88 %29.21 in4.0 miSouth (180°)20.7 mph38.0 mphRainHeavy Rain
12:54 AM64.4 °F62.6 °F94 %29.21 in2.5 miSW (220°)19.6 mph29.9 mphRainRain
12:56 AM64.4 °F62.6 °F94 %29.20 in2.5 miSW (220°)20.7 mph29.9 mphRainHeavy Rain
1:00 AM64.4 °F62.6 °F94 %29.21 in1.8 miSSW (210°)25.3 mph31.1 mphRainHeavy Rain
1:03 AM64.4 °F62.6 °F94 %29.20 in1.2 miSSW (200°)24.2 mph31.1 mphRainHeavy Rain
1:05 AM64.4 °F62.6 °F94 %29.20 in1.0 miSSW (200°)25.3 mph32.2 mphRainHeavy Rain
1:11 AM64.4 °F62.6 °F94 %29.20 in1.0 miSSW (210°)24.2 mph32.2 mphRainHeavy Rain
1:12 AM64.4 °F62.6 °F94 %29.20 in1.2 miSSW (200°)26.5 mph36.8 mphRainHeavy Rain
1:16 AM64.4 °F62.6 °F94 %29.19 in1.5 miSSW (200°)29.9 mph38.0 mphRainHeavy Rain
1:21 AM64.4 °F62.6 °F94 %29.17 in2.0 miSouth (190°)24.2 mph38.0 mphRainHeavy Rain
1:24 AM64.4 °F62.6 °F94 %29.17 in3.0 miSSW (200°)25.3 mph38.0 mphRainRain
1:29 AM64.4 °F62.6 °F94 %29.18 in7.0 miSSW (200°)27.6 mph33.4 mphRainLight Rain
1:37 AM64.4 °F62.6 °F94 %29.18 in5.0 miSSW (210°)25.3 mph35.7 mphOvercast
1:38 AM64.4 °F62.6 °F94 %29.18 in5.0 miSSW (210°)27.6 mph35.7 mphOvercast
1:39 AM64.4 °F62.6 °F94 %29.18 in4.0 miSW (220°)27.6 mph35.7 mphRainLight Rain
1:45 AM64.4 °F62.6 °F94 %29.20 in4.0 miWest (260°)23.0 mph32.2 mphRainRain
1:46 AM64.4 °F62.6 °F94 %29.21 in4.0 miWest (260°)25.3 mph38.0 mphRainRain
1:50 AM62.6 °F60.8 °F94 %29.22 in4.0 miWest (270°)19.6 mph38.0 mphRainLight Rain
1:55 AM62.8 °F58.6 °F86 %29.25 in6.0 miWest (260°)26.5 mph38.0 mph0.78 inRainRain
1:56 AM62.6 °F59.0 °F88 %29.25 in6.0 miWest (260°)24.2 mph38.0 mphRainRain
2:55 AM58.1 °F53.8 °F86 %29.22 in10.0 miSW (230°)23.0 mph31.1 mph0.23 inRainLight Rain
3:03 AM59.0 °F51.8 °F77 %29.21 in10.0 miWSW (240°)19.6 mph28.8 mphOvercast
3:15 AM59.0 °F53.6 °F82 %29.21 in10.0 miSW (220°)15.0 mph32.2 mphRainLight Rain
3:37 AM57.2 °F51.8 °F82 %29.21 in10.0 miSSW (210°)19.6 mph25.3 mphOvercast
3:55 AM57.4 °F49.3 °F74 %29.21 in10.0 miSW (230°)19.6 mph32.2 mph0.02 inOvercast
4:42 AM55.4 °F44.6 °F67 %29.27 in10.0 miWNW (290°)26.5 mph47.2 mphOvercast
4:55 AM52.7 °F40.5 °F63 %29.29 in10.0 miWNW (300°)19.6 mph31.1 mph0.03 inOvercast
5:09 AM51.8 °F39.2 °F62 %29.31 in10.0 miWNW (290°)15.0 mph24.2 mphLight Drizzle
5:46 AM48.2 °F35.6 °F62 %29.37 in10.0 miWNW (300°)13.8 mph24.2 mphOvercast
5:55 AM47.8 °F35.1 °F61 %29.38 in10.0 miWNW (290°)16.1 mph26.5 mph0.00 inOvercast
6:55 AM46.9 °F30.4 °F53 %29.45 in10.0 miWNW (300°)19.6 mph31.1 mphScattered Clouds
7:55 AM43.7 °F28.6 °F55 %29.52 in10.0 miNW (310°)19.6 mph28.8 mph0.14 inClear
8:55 AM43.0 °F25.9 °F51 %29.57 in10.0 miWNW (300°)17.3 mph25.3 mphScattered Clouds
9:55 AM43.5 °F23.2 °F45 %29.62 in10.0 miWNW (290°)21.9 mph35.7 mph0.10 inClear
10:55 AM43.9 °F18.1 °F36 %29.64 in10.0 miWNW (300°)15.0 mph25.3 mph0.01 inClear
11:55 AM45.5 °F19.6 °F36 %29.65 in10.0 miWest (280°)17.3 mph28.8 mph0.02 inClear
12:55 PM43.9 °F17.4 °F35 %29.67 in10.0 miWNW (290°)24.2 mph35.7 mph0.12 inScattered Clouds
1:55 PM44.4 °F15.1 °F31 %29.67 in10.0 miWest (280°)23.0 mph32.2 mph0.14 inPartly Cloudy
2:55 PM42.4 °F18.1 °F38 %29.71 in10.0 miNW (310°)20.7 mph28.8 mph0.05 inScattered Clouds
3:55 PM41.2 °F17.2 °F38 %29.75 in10.0 miWNW (290°)17.3 mph24.2 mphScattered Clouds
4:55 PM39.2 °F13.3 °F35 %29.80 in10.0 miWNW (290°)13.8 mph28.8 mph0.01 inClear
5:55 PM37.9 °F13.5 °F37 %29.83 in10.0 miWest (260°)13.8 mph19.6 mphPartly Cloudy
6:55 PM37.6 °F14.2 °F38 %29.86 in10.0 miWNW (300°)18.4 mph25.3 mphScattered Clouds
7:55 PM34.5 °F12.4 °F40 %29.90 in10.0 miWNW (300°)15.0 mph25.3 mphPartly Cloudy
8:55 PM32.7 °F10.6 °F40 %29.91 in10.0 miNW (310°)11.5 mphClear
9:55 PM32.0 °F10.2 °F40 %29.91 in10.0 miNW (320°)8.1 mphClear
10:55 PM31.6 °F10.9 °F42 %29.93 in10.0 miVariable4.6 mphPartly Cloudy
11:55 PM30.0 °F13.1 °F49 %29.93 in10.0 miSW (230°)4.6 mphMostly Cloudy
Hourly data recorded from KADW, located miles away from Dunkirk, Maryland







STORIES FROM OUR PARTNERS